SCP
0 0 0 0 0 0 0 0 0 0 0 0 0 0 0 0 0 0 0 0 0 0 0 0 0 0 0 0 0 0 0 0 0 0 0 0 0 0 0 0 0 0 0
0 0 0 0 0 0 0 0 0 0 0 0 0 0 0 0 0 0 0 0 0 0 0 0 0 0 0 0 0 0 0 0 0 0 0 0 0 0 0 0 0 0 0
0 0 0 0 0 0 0 0 0 0 0 0 0 0 0 0 0 0 0 0 0 0 0 0 0 0 0 0 0 0 0 0 0 0 0 0 0 0 0 0 0 1 1
0 0 0 0 0 0 0 0 0 0 0 0 0 0 0 0 0 0 0 0 0 0 0 0 0 0 0 0 0 0 0 0 0 0 0 0 0 0 0 0 0 0 0
0 0 0 0 0 0 0 0 0 0 0 0 0 0 0 0 0 0 0 0 0 0 0 0 0 0 0 0 0 0 0 0 0 0 0 0 0 0 0 0 0 0 0
0 0 0 0 0 0 0 0 0 0 0 0 0 0 0 0 0 0 0 0 0 0 0 0 0 0 0 0 0 0 0 0 0 0 0 0 0 0 0 0 0 0 0
0 0 0 0 0 0 0 0 0 0 0 0 0 0 0 0 0 0 0 0 0 0 0 0 0 0 0 0 0 0 0 0 0 0 0 0 0 0 0 0 0 0 0
0 0 0 0 0 0 0 0 0 0 0 0 0 0 0 0 0 0 0 0 0 0 0 0 0 0 0 0 0 0 0 0 0 0 0 0 0 0 0 0 0 0 0
0 0 0 0 0 0 0 0 0 0 0 0 0 0 0 0 0 0 0 0 0 0 0 0 0 -0 0 0 0 0 0 0 0 0 0 0 -0 0 0 0 0 0 0
0 0 0 0 0 0 0 0 0 0 0 0 0 0 0 0 0 -0 -0 0 0 0 0 0 0 0 0 0 0 0 0 0 0 0 0 0 0 0 0 0 0 0 0
0 0 0 0 0 0 0 0 0 0 0 0 0 0 0 0 0 0 -0 -0 0 0 0 0 0 0 0 0 0 0 0 0 0 0 0 0 0 0 0 0 0 0 0
0 0 0 0 0 0 0 0 -0 -0 0 0 0 0 0 0 0 -0 -0 -0 0 0 0 0 0 -0 -0 -0 0 0 0 0 0 0 0 0 0 0 0 0 0 0 0
0 0 0 0 0 0 0 0 -0 -0 -0 0 0 0 0 0 0 0 -0 0 0 0 0 0 -0 -0 -0 -0 -0 -0 -0 0 0 0 0 0 0 0 0 0 -0 0 0
0 0 0 0 0 0 -0 0 0 0 0 0 0 0 0 0 0 0 0 0 0 0 0 0 0 0 0 0 0 0 0 0 0 0 0 0 0 0 0 0 0 0 0
0 0 0 0 0 0 -0 0 0 0 0 0 0 0 0 0 0 0 0 0 0 0 0 0 0 0 0 0 0 0 0 0 0 0 0 0 0 0 0 0 0 0 0
0 0 0 0 0 -0 0 0 0 0 0 0 -0 0 0 0 0 0 0 0 0 0 0 0 0 0 0 0 0 0 0 0 0 0 0 0 0 0 0 0 0 0 0
0 0 0 0 0 0 0 0 0 0 0 0 0 0 0 0 0 0 0 0 0 0 0 0 0 0 0 0 0 0 0 0 0 0 0 0 0 0 0 0 0 0 0
0 0 0 0 0 0 0 0 0 0 0 0 0 0 0 0 0 0 0 0 0 0 0 0 0 0 0 0 0 0 0 0 0 0 0 0 0 0 0 0 0 0 0
0 0 0 0 0 0 0 0 -0 0 0 0 0 0 0 0 0 0 0 0 0 0 0 0 0 0 0 0 0 0 0 0 0 0 0 0 0 0 0 0 0 0 0
0 0 0 0 0 0 0 0 0 0 0 0 0 0 0 0 0 0 0 0 0 0 0 0 0 0 0 0 0 0 0 0 0 0 0 0 0 0 0 0 0 0 0
0 0 0 0 0 -0 0 0 0 0 0 0 0 0 0 0 0 0 0 0 0 0 0 0 0 0 0 0 0 0 0 0 0 0 0 0 0 0 0 0 0 0 0
0 0 0 -0 -0 0 0 0 0 0 0 0 0 0 0 0 0 0 0 0 0 0 0 0 0 0 0 0 0 0 0 0 0 0 0 0 0 0 0 0 0 0 0
-0 -0 0 0 0 0 0 0 0 0 0 0 0 0 0 0 0 0 0 0 0 0 0 0 0 0 0 0 0 0 0 0 0 0 0 0 0 0 0 0 0 0 0
-0 -0 -0 0 0 0 0 0 0 0 0 0 0 0 0 0 0 0 0 0 0 0 0 0 0 0 0 0 0 0 0 0 0 0 0 0 0 0 0 0 0 0 0
-0 -0 0 -0 0 0 0 0 0 0 0 0 0 0 0 0 0 0 0 0 0 0 0 0 0 0 0 0 0 0 0 0 0 0 0 0 0 0 0 0 0 0 0
0 0 0 0 0 0 0 0 0 0 0 0 0 0 0 0 0 0 0 0 0 0 0 0 0 0 0 0 0 0 0 -0 0 0 0 0 0 0 0 0 0 0 0
Wind_Speed_500mb
24 21 19 13 9 6 5 8 8 14 14 15 12 12 15 22 22 24 20 22 17 20 24 27 25 22 19 21 24 29 37 36 46 48 43 39 41 40 32 29 40 53 47
23 19 14 12 7 3 2 9 8 10 10 14 16 22 20 18 23 21 20 27 29 23 27 29 26 33 24 21 20 21 28 25 32 42 44 41 39 41 42 33 29 31 40
18 14 11 9 4 1 3 1 7 7 9 10 14 17 20 24 26 24 30 26 23 25 25 26 29 30 33 35 27 28 30 36 40 41 42 37 41 37 44 48 36 30 25
26 24 17 13 13 8 2 5 6 8 9 11 12 12 21 26 27 25 24 30 26 18 10 12 26 33 36 36 31 32 32 33 31 31 31 37 36 37 33 37 44 36 32
30 18 16 12 11 10 8 8 8 9 15 14 16 20 19 27 28 27 24 30 30 34 32 21 23 38 32 30 29 29 28 32 32 32 33 32 32 40 39 38 38 39 40
21 18 13 12 13 13 11 10 13 14 16 17 19 24 30 30 25 21 24 29 24 29 40 36 29 36 41 35 24 22 20 24 31 35 39 37 35 37 38 39 40 40 43
24 18 15 17 15 13 14 14 14 13 14 15 17 19 28 31 26 26 26 25 20 20 29 45 37 44 42 42 36 36 29 18 23 30 35 37 39 43 49 52 50 51 51
23 20 18 18 15 16 15 14 11 9 10 13 15 15 17 31 29 16 16 20 20 18 34 42 43 49 41 41 39 42 31 25 34 42 38 34 37 44 43 44 46 46 47
25 22 22 20 17 19 15 12 9 10 8 8 15 16 19 28 34 31 18 15 9 19 30 36 41 50 40 42 46 50 42 37 31 33 34 39 38 36 39 40 39 44 48
27 26 27 23 20 19 13 9 7 5 3 4 10 8 17 22 26 38 39 26 21 14 25 34 34 42 40 41 51 51 47 40 44 43 41 40 32 37 35 35 39 39 43
27 27 29 26 24 19 14 9 4 2 5 11 6 6 13 17 18 30 40 36 37 12 16 27 31 34 37 37 42 45 43 39 38 42 38 41 43 45 45 43 51 45 41
28 26 29 24 19 12 10 7 9 6 3 7 14 13 10 11 9 24 31 32 29 34 20 38 17 22 29 33 37 37 39 40 37 39 38 40 43 45 50 43 43 45 46
30 26 25 27 15 16 13 12 10 1 4 7 8 8 6 12 15 19 31 30 29 31 31 43 18 21 19 23 28 31 32 31 43 37 48 41 43 45 45 47 50 55 48
32 26 22 22 22 18 18 6 1 5 3 8 10 9 7 7 6 23 28 24 24 29 32 23 23 37 17 20 24 33 40 37 38 39 40 42 43 44 47 45 54 51 52
31 27 20 16 17 15 18 16 11 6 11 11 12 3 4 6 15 19 24 29 32 32 28 25 19 29 34 34 38 36 36 47 52 50 44 48 45 45 46 47 50 50 49
28 26 22 26 17 21 18 15 13 11 8 9 10 12 11 14 17 21 27 30 33 35 34 33 23 31 27 29 32 38 34 39 41 54 43 50 51 46 44 48 49 46 51
28 24 22 27 14 16 13 12 17 17 17 11 10 21 25 20 22 26 27 32 36 40 38 40 34 37 28 30 33 33 37 32 40 43 51 44 49 44 44 48 48 50 50
27 27 21 19 15 14 13 13 12 17 20 11 25 26 27 28 25 23 29 41 46 40 34 33 23 23 27 35 34 43 40 45 52 40 46 43 44 45 46 46 49 51 54
21 27 23 17 15 13 12 14 14 17 14 21 28 27 32 21 23 25 38 45 45 35 25 25 28 36 33 31 37 30 31 48 37 43 44 43 44 43 47 51 51 52 52
28 23 23 14 11 16 20 20 16 15 23 26 27 32 15 18 22 32 33 22 22 14 19 25 28 27 26 34 25 28 41 34 39 37 36 39 45 52 60 53 50 53 53
27 22 11 15 16 15 11 11 16 20 28 30 32 16 19 26 25 24 24 18 18 23 27 31 27 33 31 28 36 32 33 33 37 41 44 50 60 49 47 49 49 50 51
21 29 16 16 17 16 14 15 24 21 28 24 20 31 28 30 27 25 25 25 23 20 21 28 26 26 28 28 30 31 32 32 36 46 59 53 46 50 45 44 47 49 52
19 18 23 17 19 19 19 21 21 24 28 23 27 24 26 27 27 25 24 25 26 26 28 29 28 27 27 32 32 27 33 34 44 56 53 50 52 52 49 49 47 42 43
21 18 17 17 12 14 19 14 21 16 21 24 24 25 26 25 23 24 25 24 26 26 27 25 27 25 28 31 27 26 34 38 51 61 53 52 53 56 55 44 34 49 51
16 16 10 20 15 25 41 27 19 23 23 23 23 25 21 24 22 22 23 25 26 25 26 24 25 26 29 31 31 37 42 47 62 53 50 50 54 54 47 39 43 46 42
17 11 11 19 15 15 11 13 15 16 20 21 23 23 23 21 19 21 23 23 26 26 23 25 25 25 28 32 38 41 54 64 61 56 52 51 54 50 42 42 47 47 52
Wind_Direction_500mb
145 153 133 135 145 162 296 310 322 325 344 340 345 327 333 342 4 6 28 352 5 16 1 359 346 323 303 312 322 327 311 304 297 294 294 289 287 296 299 291 271 264 281
163 154 159 173 172 244 224 332 328 346 24 349 22 22 36 350 2 8 13 23 7 16 353 348 341 340 337 314 297 284 294 303 304 307 302 300 290 285 288 292 277 272 262
142 138 128 114 110 78 88 259 342 54 52 50 50 51 7 5 16 22 48 16 29 15 7 355 337 325 322 319 318 312 307 299 299 304 311 317 304 297 289 285 289 295 286
163 175 170 169 156 165 224 114 68 78 69 60 65 80 24 22 27 33 55 25 21 6 352 353 335 335 335 335 332 325 327 329 333 323 324 330 326 320 308 304 285 286 288
184 178 181 190 196 186 147 118 104 84 76 61 52 51 36 31 34 44 48 45 10 357 11 19 17 357 6 351 338 332 336 339 336 335 325 318 324 333 331 320 311 304 281
159 182 187 170 146 139 137 123 97 76 74 61 43 50 38 37 37 43 50 43 14 2 6 30 17 3 11 10 3 354 341 337 337 329 327 328 321 327 315 321 321 318 313
177 181 170 150 156 149 131 122 105 84 72 65 57 34 44 38 41 53 52 40 8 15 358 7 14 5 7 11 20 14 17 9 331 328 315 310 309 310 315 316 315 307 302
170 173 162 157 164 146 140 129 108 99 80 57 45 55 24 33 33 38 52 47 8 350 353 357 2 1 4 10 20 19 19 7 11 1 352 352 348 335 319 313 319 316 312
170 175 164 167 169 153 149 138 119 68 39 26 359 8 27 36 32 25 17 42 14 3 348 355 357 351 3 16 20 22 22 29 28 16 2 3 352 352 354 339 332 331 322
176 174 169 172 171 156 165 132 131 143 300 53 288 288 313 355 19 15 18 19 17 51 354 358 343 358 11 15 17 16 16 17 16 12 1 3 349 351 343 324 325 330 330
179 175 168 174 163 171 157 164 168 196 214 57 333 237 227 283 4 15 13 18 15 30 9 339 328 10 11 3 7 6 4 354 6 356 351 353 351 354 350 351 349 345 334
181 171 167 165 150 154 149 156 143 152 137 271 12 336 246 298 332 21 10 5 4 7 359 330 348 351 0 4 358 0 0 1 3 351 352 350 347 349 346 349 336 339 342
166 168 163 141 149 215 183 200 181 126 8 316 312 332 357 339 324 6 357 348 348 343 343 331 315 323 335 357 357 350 353 348 346 351 343 349 346 344 341 341 337 341 338
164 164 169 171 188 201 165 133 311 222 287 292 291 313 333 348 1 335 333 325 324 324 319 327 337 359 342 13 5 0 353 353 353 348 348 342 340 341 341 339 336 339 330
169 167 177 172 197 204 202 204 212 240 15 38 56 35 253 279 276 316 330 322 320 325 332 328 333 342 330 325 329 327 322 334 333 331 335 332 333 334 336 334 339 334 332
171 177 185 185 193 197 202 223 213 255 327 358 352 345 322 302 301 318 323 329 321 311 313 312 302 302 316 319 328 326 328 340 334 332 324 329 327 327 331 335 332 331 330
173 185 192 196 200 200 221 243 262 270 261 269 306 315 316 297 289 317 326 327 322 310 306 314 299 294 310 314 331 322 317 323 318 326 328 322 331 326 333 333 329 329 326
175 192 189 189 199 218 238 256 263 268 275 260 305 316 316 313 288 312 329 322 317 308 305 310 319 312 308 318 324 317 316 325 326 320 329 331 328 329 333 329 328 324 322
182 188 193 206 213 225 246 251 238 269 282 300 301 298 307 307 314 310 323 315 312 302 289 299 297 306 308 317 322 304 312 326 326 325 322 323 327 329 320 314 316 320 319
185 193 204 222 228 242 258 256 273 298 297 299 304 314 302 329 334 322 316 321 336 323 310 306 315 315 325 326 317 309 325 328 327 323 323 315 309 307 309 318 319 316 317
188 193 225 221 228 238 264 284 291 303 307 311 312 330 327 342 336 325 322 315 324 317 317 301 300 315 316 310 324 321 315 319 319 307 304 308 315 324 320 315 315 315 313
214 216 231 198 214 236 252 274 301 295 307 310 324 327 327 337 324 321 315 318 322 323 328 325 327 314 318 311 308 312 317 312 299 310 320 325 325 325 325 321 320 317 314
206 232 229 233 245 253 261 291 290 309 320 321 323 315 316 315 318 317 314 319 311 315 310 311 312 311 309 305 312 320 301 300 315 324 323 325 327 328 323 314 312 320 319
211 237 239 268 271 277 299 302 327 315 328 330 324 317 313 312 313 311 315 313 312 309 309 311 309 314 310 315 316 311 290 301 315 322 318 319 325 328 323 321 329 318 315
217 263 313 295 306 300 310 281 298 322 328 320 315 313 310 301 313 312 308 313 308 311 310 315 313 310 311 314 299 287 296 309 319 318 315 317 320 322 325 322 312 308 313
254 273 284 317 327 318 308 303 311 325 320 309 313 306 308 314 312 303 312 308 304 315 320 308 312 313 316 305 292 301 309 315 317 319 318 317 318 317 318 314 315 311 310
Wind_Speed_850mb
24 21 19 13 9 6 5 8 8 14 14 15 12 12 15 22 22 24 20 22 17 20 24 27 25 22 19 21 24 29 37 36 46 48 43 39 41 40 32 29 40 53 47
23 19 14 12 7 3 2 9 8 10 10 14 16 22 20 18 23 21 20 27 29 23 27 29 26 33 24 21 20 21 28 25 32 42 44 41 39 41 42 33 29 31 40
18 14 11 9 4 1 3 1 7 7 9 10 14 17 20 24 26 24 30 26 23 25 25 26 29 30 33 35 27 28 30 36 40 41 42 37 41 37 44 48 36 30 25
26 24 17 13 13 8 2 5 6 8 9 11 12 12 21 26 27 25 24 30 26 18 10 12 26 33 36 36 31 32 32 33 31 31 31 37 36 37 33 37 44 36 32
30 18 16 12 11 10 8 8 8 9 15 14 16 20 19 27 28 27 24 30 30 34 32 21 23 38 32 30 29 29 28 32 32 32 33 32 32 40 39 38 38 39 40
21 18 13 12 13 13 11 10 13 14 16 17 19 24 30 30 25 21 24 29 24 29 40 36 29 36 41 35 24 22 20 24 31 35 39 37 35 37 38 39 40 40 43
24 18 15 17 15 13 14 14 14 13 14 15 17 19 28 31 26 26 26 25 20 20 29 45 37 44 42 42 36 36 29 18 23 30 35 37 39 43 49 52 50 51 51
23 20 18 18 15 16 15 14 11 9 10 13 15 15 17 31 29 16 16 20 20 18 34 42 43 49 41 41 39 42 31 25 34 42 38 34 37 44 43 44 46 46 47
25 22 22 20 17 19 15 12 9 10 8 8 15 16 19 28 34 31 18 15 9 19 30 36 41 50 40 42 46 50 42 37 31 33 34 39 38 36 39 40 39 44 48
27 26 27 23 20 19 13 9 7 5 3 4 10 8 17 22 26 38 39 26 21 14 25 34 34 42 40 41 51 51 47 40 44 43 41 40 32 37 35 35 39 39 43
27 27 29 26 24 19 14 9 4 2 5 11 6 6 13 17 18 30 40 36 37 12 16 27 31 34 37 37 42 45 43 39 38 42 38 41 43 45 45 43 51 45 41
28 26 29 24 19 12 10 7 9 6 3 7 14 13 10 11 9 24 31 32 29 34 20 38 17 22 29 33 37 37 39 40 37 39 38 40 43 45 50 43 43 45 46
30 26 25 27 15 16 13 12 10 1 4 7 8 8 6 12 15 19 31 30 29 31 31 43 18 21 19 23 28 31 32 31 43 37 48 41 43 45 45 47 50 55 48
32 26 22 22 22 18 18 6 1 5 3 8 10 9 7 7 6 23 28 24 24 29 32 23 23 37 17 20 24 33 40 37 38 39 40 42 43 44 47 45 54 51 52
31 27 20 16 17 15 18 16 11 6 11 11 12 3 4 6 15 19 24 29 32 32 28 25 19 29 34 34 38 36 36 47 52 50 44 48 45 45 46 47 50 50 49
28 26 22 26 17 21 18 15 13 11 8 9 10 12 11 14 17 21 27 30 33 35 34 33 23 31 27 29 32 38 34 39 41 54 43 50 51 46 44 48 49 46 51
28 24 22 27 14 16 13 12 17 17 17 11 10 21 25 20 22 26 27 32 36 40 38 40 34 37 28 30 33 33 37 32 40 43 51 44 49 44 44 48 48 50 50
27 27 21 19 15 14 13 13 12 17 20 11 25 26 27 28 25 23 29 41 46 40 34 33 23 23 27 35 34 43 40 45 52 40 46 43 44 45 46 46 49 51 54
21 27 23 17 15 13 12 14 14 17 14 21 28 27 32 21 23 25 38 45 45 35 25 25 28 36 33 31 37 30 31 48 37 43 44 43 44 43 47 51 51 52 52
28 23 23 14 11 16 20 20 16 15 23 26 27 32 15 18 22 32 33 22 22 14 19 25 28 27 26 34 25 28 41 34 39 37 36 39 45 52 60 53 50 53 53
27 22 11 15 16 15 11 11 16 20 28 30 32 16 19 26 25 24 24 18 18 23 27 31 27 33 31 28 36 32 33 33 37 41 44 50 60 49 47 49 49 50 51
21 29 16 16 17 16 14 15 24 21 28 24 20 31 28 30 27 25 25 25 23 20 21 28 26 26 28 28 30 31 32 32 36 46 59 53 46 50 45 44 47 49 52
19 18 23 17 19 19 19 21 21 24 28 23 27 24 26 27 27 25 24 25 26 26 28 29 28 27 27 32 32 27 33 34 44 56 53 50 52 52 49 49 47 42 43
21 18 17 17 12 14 19 14 21 16 21 24 24 25 26 25 23 24 25 24 26 26 27 25 27 25 28 31 27 26 34 38 51 61 53 52 53 56 55 44 34 49 51
16 16 10 20 15 25 41 27 19 23 23 23 23 25 21 24 22 22 23 25 26 25 26 24 25 26 29 31 31 37 42 47 62 53 50 50 54 54 47 39 43 46 42
17 11 11 19 15 15 11 13 15 16 20 21 23 23 23 21 19 21 23 23 26 26 23 25 25 25 28 32 38 41 54 64 61 56 52 51 54 50 42 42 47 47 52
Wind_Direction_850mb
145 153 133 135 145 162 296 310 322 325 344 340 345 327 333 342 4 6 28 352 5 16 1 359 346 323 303 312 322 327 311 304 297 294 294 289 287 296 299 291 271 264 281
163 154 159 173 172 244 224 332 328 346 24 349 22 22 36 350 2 8 13 23 7 16 353 348 341 340 337 314 297 284 294 303 304 307 302 300 290 285 288 292 277 272 262
142 138 128 114 110 78 88 259 342 54 52 50 50 51 7 5 16 22 48 16 29 15 7 355 337 325 322 319 318 312 307 299 299 304 311 317 304 297 289 285 289 295 286
163 175 170 169 156 165 224 114 68 78 69 60 65 80 24 22 27 33 55 25 21 6 352 353 335 335 335 335 332 325 327 329 333 323 324 330 326 320 308 304 285 286 288
184 178 181 190 196 186 147 118 104 84 76 61 52 51 36 31 34 44 48 45 10 357 11 19 17 357 6 351 338 332 336 339 336 335 325 318 324 333 331 320 311 304 281
159 182 187 170 146 139 137 123 97 76 74 61 43 50 38 37 37 43 50 43 14 2 6 30 17 3 11 10 3 354 341 337 337 329 327 328 321 327 315 321 321 318 313
177 181 170 150 156 149 131 122 105 84 72 65 57 34 44 38 41 53 52 40 8 15 358 7 14 5 7 11 20 14 17 9 331 328 315 310 309 310 315 316 315 307 302
170 173 162 157 164 146 140 129 108 99 80 57 45 55 24 33 33 38 52 47 8 350 353 357 2 1 4 10 20 19 19 7 11 1 352 352 348 335 319 313 319 316 312
170 175 164 167 169 153 149 138 119 68 39 26 359 8 27 36 32 25 17 42 14 3 348 355 357 351 3 16 20 22 22 29 28 16 2 3 352 352 354 339 332 331 322
176 174 169 172 171 156 165 132 131 143 300 53 288 288 313 355 19 15 18 19 17 51 354 358 343 358 11 15 17 16 16 17 16 12 1 3 349 351 343 324 325 330 330
179 175 168 174 163 171 157 164 168 196 214 57 333 237 227 283 4 15 13 18 15 30 9 339 328 10 11 3 7 6 4 354 6 356 351 353 351 354 350 351 349 345 334
181 171 167 165 150 154 149 156 143 152 137 271 12 336 246 298 332 21 10 5 4 7 359 330 348 351 0 4 358 0 0 1 3 351 352 350 347 349 346 349 336 339 342
166 168 163 141 149 215 183 200 181 126 8 316 312 332 357 339 324 6 357 348 348 343 343 331 315 323 335 357 357 350 353 348 346 351 343 349 346 344 341 341 337 341 338
164 164 169 171 188 201 165 133 311 222 287 292 291 313 333 348 1 335 333 325 324 324 319 327 337 359 342 13 5 0 353 353 353 348 348 342 340 341 341 339 336 339 330
169 167 177 172 197 204 202 204 212 240 15 38 56 35 253 279 276 316 330 322 320 325 332 328 333 342 330 325 329 327 322 334 333 331 335 332 333 334 336 334 339 334 332
171 177 185 185 193 197 202 223 213 255 327 358 352 345 322 302 301 318 323 329 321 311 313 312 302 302 316 319 328 326 328 340 334 332 324 329 327 327 331 335 332 331 330
173 185 192 196 200 200 221 243 262 270 261 269 306 315 316 297 289 317 326 327 322 310 306 314 299 294 310 314 331 322 317 323 318 326 328 322 331 326 333 333 329 329 326
175 192 189 189 199 218 238 256 263 268 275 260 305 316 316 313 288 312 329 322 317 308 305 310 319 312 308 318 324 317 316 325 326 320 329 331 328 329 333 329 328 324 322
182 188 193 206 213 225 246 251 238 269 282 300 301 298 307 307 314 310 323 315 312 302 289 299 297 306 308 317 322 304 312 326 326 325 322 323 327 329 320 314 316 320 319
185 193 204 222 228 242 258 256 273 298 297 299 304 314 302 329 334 322 316 321 336 323 310 306 315 315 325 326 317 309 325 328 327 323 323 315 309 307 309 318 319 316 317
188 193 225 221 228 238 264 284 291 303 307 311 312 330 327 342 336 325 322 315 324 317 317 301 300 315 316 310 324 321 315 319 319 307 304 308 315 324 320 315 315 315 313
214 216 231 198 214 236 252 274 301 295 307 310 324 327 327 337 324 321 315 318 322 323 328 325 327 314 318 311 308 312 317 312 299 310 320 325 325 325 325 321 320 317 314
206 232 229 233 245 253 261 291 290 309 320 321 323 315 316 315 318 317 314 319 311 315 310 311 312 311 309 305 312 320 301 300 315 324 323 325 327 328 323 314 312 320 319
211 237 239 268 271 277 299 302 327 315 328 330 324 317 313 312 313 311 315 313 312 309 309 311 309 314 310 315 316 311 290 301 315 322 318 319 325 328 323 321 329 318 315
217 263 313 295 306 300 310 281 298 322 328 320 315 313 310 301 313 312 308 313 308 311 310 315 313 310 311 314 299 287 296 309 319 318 315 317 320 322 325 322 312 308 313
254 273 284 317 327 318 308 303 311 325 320 309 313 306 308 314 312 303 312 308 304 315 320 308 312 313 316 305 292 301 309 315 317 319 318 317 318 317 318 314 315 311 310